Regional Weather Roundup
Issued by NWS Binghamton, NY

Home | Current Version | Previous Version | Text Only | Print | Product List | Glossary On
Versions: 1 2 3 4 5 6 7 8 9 10 11 12 13 14 15 16 17 18 19 20 21 22 23 24 25 26 27
000
ASUS41 KBGM 261010
RWRBGM

REGIONAL WEATHER ROUNDUP
NATIONAL WEATHER SERVICE BINGHAMTON NY
600 AM EDT THU MAY 26 2016

Note: "fair" indicates few or no clouds below 12,000 feet with no
significant weather and/or obstructions to visibility.

* = Station(s) that does not report precipitation, such as rain,
snow, etc, also no thunder or fog.

NYZ009-015>018-022>025-036-037-044>046-055>057-062-261100
...Central New York...

CITY           SKY/WX    TMP DP  RH WIND       PRES   REMARKS
Binghamton     PTCLDY    60  52  74 CALM      30.14R
Cortland       FAIR      54  54 100 CALM      30.13R
Dansville      CLOUDY    57  52  83 SE8       30.10S
Elmira         MOCLDY    53  51  93 CALM      30.11S FOG
Ithaca         CLOUDY    57  53  86 E7        30.12R
Hamilton       CLEAR     57  55  94 CALM      30.12S
Hornell        CLEAR     54  52  94 CALM      30.16R
Monticello     PTCLDY    54  52  94 N3        30.16R
Oneonta        CLEAR     57  52  82 CALM      30.14S
Penn Yan       PTCLDY    61  53  75 SW8       30.10R
Rome           CLOUDY    55  54  96 CALM      30.10R
Sidney         CLEAR     55  55 100 W3        30.14R FOG
Syracuse       MOCLDY    59  54  83 CALM      30.07R
$$

PAZ038>040-043-044-047-048-072-261100
...Northeast Pennsylvania...

CITY           SKY/WX    TMP DP  RH WIND       PRES   REMARKS
Hazleton       CLOUDY    54  50  87 CALM      30.18R
Scranton       CLOUDY    59  51  75 E6        30.13R
$$
&&
KEY
WCI = Wind Chill Index
VSB = Visibility
HX  = Heat Index
$$




USA.gov is the U.S. government's official web portal to all federal, state and local government web resources and services.